Location: Zürich
(47.3769°N, 8.5417°E)
Time: 06:08:11
(UTC+02:00)

ISS - Visible Passes

Search period start: 27 June 2019 00:00
Search period end: 07 July 2019 00:00
Orbit: 407 x 418 km, 51.6° (Epoch: 27 June)

Date Brightness Start Highest point End Pass type
(mag) Time Alt. Az. Time Alt. Az. Time Alt. Az.
01 Jul -1.3 04:13:50 10° SSE 04:15:05 12° SE 04:16:20 10° ESE visible
03 Jul -2.3 04:10:13 15° S 04:12:14 26° SE 04:15:03 10° E visible
04 Jul -1.8 03:22:24 16° SE 03:22:49 16° SE 03:24:59 10° E visible
05 Jul -3.6 04:07:21 19° SW 04:09:31 56° SSE 04:12:46 10° ENE visible
06 Jul -3.0 03:19:25 33° SSE 03:19:58 35° SE 03:23:02 10° ENE visible
06 Jul -3.2 04:53:17 10° W 04:56:33 55° NNW 04:59:48 10° ENE visible
